User: anonymous   Login
Location: Oshawa
(43.9000°N, 78.8670°W)
Time: 12:31:48
(UTC-04:00)
Language:

PAYLOAD A - Orbit

View from above orbital plane
View from above orbital plane
View from above satellite
View from above satellite

Ground track
Ground track

The orbit data is extracted from the following two-line orbital elements,

1 27840U 03031A   15125.49195811  .00000035  00000-0  24435-4 0  9990
2 27840 098.2099 145.7821 0097135 291.7244 239.9146 14.38800420622051
Epoch (UTC): 05 May 2015 11:48:25
Eccentricity: 0.0097135
inclination: 98.2099°
perigee height: 693 km
apogee height: 832 km
right ascension of ascending node: 145.7821°
argument of perigee: 291.7244°
revolutions per day: 14.38800420
mean anomaly at epoch: 239.9146°
orbit number at epoch: 62205

The dashed part of the orbit path shows where the satellite is in the earth's shadow,  

DLR